Preview of NWS' New Version of Forecast
This preview is not operational and should not be used for support decisions.

Regional Weather Roundup (RWR)

Issued by National Weather Service (NWS)

                            
000
ASUS45 KABQ 191101
RWRNM 
NEW MEXICO REGIONAL WEATHER ROUNDUP
NATIONAL WEATHER SERVICE ALBUQUERQUE NM
500 AM MDT MON AUG 19 2019

NOTE: "FAIR" MEANS FEW OR NO CLOUDS BELOW 12,000 FEET AGL WITH NO
       SIGNIFICANT WEATHER OR OBSTRUCTIONS TO VISION.

      THIS PRODUCT IS RELEASED AS TWO VERSIONS.  ONE VERSION NEAR
      THE TOP OF THE HOUR CONTAINING PRELIMINARY DATA FROM ALBUQUERQUE
      AND OTHER STATIONS.  A FINAL VERSION WITH ADDITIONAL DATA IS 
      ISSUED ABOUT 10 MINUTES AFTER THE HOUR.
 
NMZ501-503-504-510>518-191200-
NORTHWEST PLATEAU/NORTHCENTRAL MOUNTAINS
  
CITY           SKY/WX    TMP DP  RH WIND       PRES   REMARKS
FARMINGTON     FAIR      58  27  30 E8        30.14R                  
LOS ALAMOS       N/A     70  22  16 W3        30.28S                  
SANTA FE       FAIR      62  29  28 N10       30.21R                  
TAOS             N/A     55  28  35 N13       30.29R                  
ANGEL FIRE     MOCLDY    39  32  76 CALM      30.42R                  

$$
NMZ402-403-502-505>509-191200-
WESTCENTRAL MOUNTAINS/SOUTHWEST MOUNTAINS
  
CITY           SKY/WX    TMP DP  RH WIND       PRES   REMARKS
GALLUP         FAIR      52  23  32 E3        30.25R                  
GRANTS         FAIR      50  30  46 CALM      30.26S                  
SILVER CITY    FAIR      68  37  31 NW12      30.14R                  

$$
NMZ407-409-411-412-191200-
SOUTHERN DESERTS
  
CITY           SKY/WX    TMP DP  RH WIND       PRES   REMARKS
DEMING         FAIR      69  37  30 SW7       30.06R                  
LAS CRUCES     FAIR      76  34  21 W6        30.06S                  
HOLLOMAN AFB   FAIR      79  42  26 S7        30.04R                  
ALAMOGORDO     FAIR      77  37  24 S8        30.03R                  
T OR C         FAIR      77  34  21 NW7       30.07R                  

$$
NMZ519>523-191200-
CENTRAL VALLEYS/CENTRAL HIGHLANDS
  
CITY           SKY/WX    TMP DP  RH WIND       PRES   REMARKS
ALBUQUERQUE    FAIR      67  39  35 W5        30.13R                  
CLINES CORNERS FAIR      61  29  29 NW3       30.26S                  
BELEN          FAIR      65  31  28 NE6       30.13R                  
SOCORRO        FAIR      67  33  28 NW7       30.10R                  

$$
NMZ524>526-539-540-191200-
SOUTHCENTRAL MOUNTAINS
  
CITY           SKY/WX    TMP DP  RH WIND       PRES   REMARKS
RUIDOSO        FAIR      66  36  32 CALM      30.26S                  

$$
NMZ527>531-191200-
NORTHEAST HIGHLANDS/NORTHEAST PLAINS
  
CITY           SKY/WX    TMP DP  RH WIND       PRES   REMARKS
LAS VEGAS      FAIR      58  32  37 NW5       30.25S                  
RATON          FAIR      54  45  71 NE9       30.21R                  
CLAYTON        FAIR      67  57  70 W9        30.09S                  

$$
NMZ532>537-191200-
EASTCENTRAL PLAINS
  
CITY           SKY/WX    TMP DP  RH WIND       PRES   REMARKS
TUCUMCARI      FAIR      70  54  56 SW6       29.99R                  
CANNON AFB     NOT AVBL                                               
CLOVIS AIRPORT FAIR      68  58  70 SE6       30.06R                  

$$
NMZ028-029-538-191200-
SOUTHEAST PLAINS
  
CITY           SKY/WX    TMP DP  RH WIND       PRES   REMARKS
ROSWELL        FAIR      80  54  40 S9        29.98R                  
ARTESIA        FAIR      81  59  47 S6        30.00R                  
CARLSBAD       FAIR      82  55  39 SE5       29.95R                  
HOBBS          FAIR      82  59  44 S15       30.02R                  


$$